Location: Bu�n Treun
(12.1333°N, 108.3167°E)
Time: 13:14:22
(UTC+00:00)

USA 186 - Pass Details

Date: 13 July 2020
Orbit: 262 x 437 km, 96.9° (Epoch: 06 August)

Event Time Altitude Azimuth Distance (km) Brightness Sun altitude
Exits shadow 12:04:12 16° 92° (E) 1,207 3.5 -11.6°
Maximum altitude 12:04:49 17° 78° (ENE) 1,172 3.5 -11.8°
Drops below altitude 10° 12:07:00 10° 35° (NE) 1,510 4.5 -12.2°
Sets 12:09:27 0° 15° (NNE) 2,347 5.7 -12.8°
